This demonstration page uses our WeatherBlox Daily Observations layout. Learn more.

Left ArrowRight Arrow

39.01783, -85.05884

Hourly Observations for April 7, 2018

Temp ( °F °C ) Dew Point ( °F °C ) Humidity (%) Winds ( mph kmh ) Pressure ( in mb ) Visibility ( mi km ) Precip ( " mm )
12:05 am 00:05 Cloudy 32 undefined 32 undefined 100 100 N 16 26 30.06 1018 10 16 N/A
12:27 am 00:27 Cloudy 32 undefined 32 undefined 100 100 NNW 15 24 30.06 1018 10 16 N/A
12:52 am 00:52 Cloudy with Light Snow 31 -0.6 31 -0.6 100 100 N 14 22 30.01 1016 5 8 N/A
1:15 am 01:15 Cloudy with Light Snow 31 -0.6 31 -0.6 100 100 NNW 10 17 30.09 1019 2 3 N/A
1:23 am 01:23 Cloudy with Light Snow 31 -0.6 31 -0.6 100 100 NNW 9 15 30.09 1019 2 3 0.01 0.25
1:52 am 01:52 Cloudy with Light Snow 31 -0.6 31 -0.6 100 100 N 18 30 30.02 1017 2 3 0.02 0.51
2:24 am 02:24 Windy with Snow Likely 30 -1.1 30 -1.1 100 100 N 25 41 30.09 1019 2 2 N/A
2:52 am 02:52 Cloudy with Light Snow 28 -2.2 28 -2.2 100 100 N 18 30 30.03 1017 2 3 0.01 0.25
3:21 am 03:21 Cloudy with Light Snow 28 -2.2 28 -2.2 100 100 N 13 20 30.09 1019 3 5 N/A
3:52 am 03:52 Cloudy 29 -1.7 29 -1.7 100 100 NNE 10 17 30.03 1017 9 14 N/A
4:25 am 04:25 Cloudy with Light Snow 28 -2.2 28 -2.2 100 100 N 8 13 30.09 1019 2 3 N/A
4:52 am 04:52 Cloudy with Light Snow 28 -2.2 28 -2.2 100 100 N 7 11 30.04 1017 5 8 N/A
5:38 am 05:38 Cloudy with Light Snow 29 -1.7 29 -1.7 100 100 N 10 17 30.09 1019 3 4 N/A
5:52 am 05:52 Cloudy with Light Snow 28 -2.2 28 -2.2 100 100 N 10 17 30.05 1018 3 5 0.01 0.25
6:21 am 06:21 Cloudy with Light Snow 28 -2.2 28 -2.2 100 100 NNE 9 15 30.12 1020 1 2 N/A
6:31 am 06:31 Cloudy with Light Snow 28 -2.2 28 -2.2 100 100 NNE 9 15 30.12 1020 1 1 0.01 0.25
6:42 am 06:42 Cloudy with Light Snow 28 -2.2 28 -2.2 100 100 NE 9 15 30.12 1020 2 2 0.01 0.25
6:52 am 06:52 Cloudy with Light Snow 28 -2.2 28 -2.2 100 100 E 7 11 30.06 1018 2 2 0.01 0.25
7:02 am 07:02 Cloudy with Light Snow 28 -2.2 28 -2.2 100 100 E 7 11 30.12 1020 5 8 N/A
7:52 am 07:52 Cloudy 28 -2.2 28 -2.2 100 100 N 5 7 30.08 1019 10 16 N/A
8:52 am 08:52 Cloudy 30 -1.1 25 -3.9 82 82 N 12 19 30.09 1019 10 16 N/A
9:52 am 09:52 Cloudy 30 -1.1 25 -3.9 82 82 N 10 17 30.11 1020 10 16 N/A
10:52 am 10:52 Cloudy 31 -0.6 23 -5 72 72 NE 8 13 30.10 1019 10 16 N/A
11:52 am 11:52 Cloudy 33 0.6 21 -6.1 61 61 N 9 15 30.10 1019 10 16 N/A
12:52 pm 12:52 Mostly Cloudy 35 1.7 19 -7.2 52 52 NE 7 11 30.09 1019 10 16 N/A
1:52 pm 13:52 Partly Cloudy 38 3.3 19 -7.2 46 46 N N/A 30.07 1018 10 16 N/A
2:52 pm 14:52 Partly Cloudy 39 3.9 17 -8.3 41 41 NE 3 6 30.06 1018 10 16 N/A
3:52 pm 15:52 Partly Cloudy 41 5 18 -7.8 39 39 N 9 15 30.04 1017 10 16 N/A
4:52 pm 16:52 Partly Cloudy 42 5.6 19 -7.2 40 40 NW 13 20 30.04 1017 10 16 N/A
5:52 pm 17:52 Mostly Sunny 41 5 18 -7.8 39 39 NNW 10 17 30.03 1017 10 16 N/A
6:52 pm 18:52 Mostly Sunny 41 5 19 -7.2 41 41 NNW 9 15 30.01 1016 10 16 N/A
7:52 pm 19:52 Mostly Sunny 38 3.3 20 -6.7 48 48 N 10 17 30.02 1017 10 16 N/A
8:52 pm 20:52 Mostly Clear 36 2.2 20 -6.7 52 52 NNW 7 11 30.03 1017 10 16 N/A
9:52 pm 21:52 Mostly Clear 35 1.7 20 -6.7 54 54 NW 5 7 30.05 1018 10 16 N/A
10:52 pm 22:52 Mostly Clear 34 1.1 21 -6.1 59 59 NW 3 6 30.05 1018 10 16 N/A
11:52 pm 23:52 Clear 32 undefined 22 -5.6 66 66 NW 7 11 30.05 1018 10 16 N/A

Powered by AerisWeather